Temp_Advection
nan nan nan nan nan nan nan nan nan nan nan nan nan nan nan nan nan nan nan nan nan nan nan nan nan nan nan nan nan nan nan nan nan nan nan nan nan nan nan nan nan nan nan
nan -0 0 1 0 0 0 0 0 0 0 0 0 0 0 0 -0 0 1 1 0 0 0 0 0 -0 0 0 -0 -0 0 1 1 1 1 1 1 0 -0 0 0 0 nan
nan 0 1 2 0 0 0 0 0 0 0 0 0 0 0 0 0 0 0 0 0 0 0 0 0 0 0 0 -0 -0 0 1 1 1 1 1 0 -0 -0 -0 0 0 nan
nan 1 1 1 0 0 0 0 0 0 0 0 0 0 0 0 0 0 0 1 0 0 0 0 0 0 0 0 -0 0 1 1 1 0 1 0 -0 -0 -0 0 0 0 nan
nan 0 0 0 0 0 0 0 0 0 0 0 0 0 0 0 0 0 0 0 0 0 0 0 0 0 -0 -0 0 1 1 0 0 0 0 0 0 0 0 0 0 -0 nan
nan 0 0 0 0 0 0 0 0 0 0 0 0 0 -0 0 0 0 0 0 0 0 0 0 0 0 0 0 1 1 0 0 0 0 0 0 0 0 0 0 0 0 nan
nan 0 0 0 0 0 0 0 0 0 0 0 0 0 0 -0 0 0 0 0 0 0 0 0 0 0 1 0 0 0 0 1 0 0 0 -0 0 0 0 0 0 0 nan
nan 0 0 0 0 0 0 0 0 0 0 0 0 -0 0 0 -0 0 0 1 1 0 0 0 0 0 0 0 0 0 0 0 0 0 0 0 0 0 0 0 0 0 nan
nan 0 0 0 0 0 0 0 0 0 0 0 0 0 0 -0 -0 0 1 1 0 0 0 0 0 0 0 0 0 0 0 0 0 0 0 0 0 0 0 0 0 0 nan
nan 0 0 0 0 0 0 0 0 0 0 0 1 0 -0 -0 0 0 0 0 0 0 0 0 0 -0 -0 0 0 0 0 0 0 0 -0 0 0 0 0 0 0 0 nan
nan 0 0 0 0 0 0 0 0 0 0 0 1 0 0 0 0 0 0 0 0 0 -0 -0 -0 -0 0 0 0 0 0 0 0 -0 0 0 0 0 0 0 0 0 nan
nan 1 0 0 0 0 0 0 0 0 0 0 1 1 0 0 0 0 -0 -0 -0 -0 -0 0 -0 0 0 0 -0 0 0 0 -0 -0 0 0 0 0 0 0 0 0 nan
nan 0 0 0 0 0 0 0 0 0 0 1 0 0 0 0 -0 -0 -0 -0 0 0 0 -0 0 0 0 -0 -0 0 0 0 0 0 0 0 0 0 0 0 -0 -0 nan
nan 0 0 0 0 0 0 0 0 0 0 0 0 0 0 0 -0 -0 -0 -0 0 0 0 0 0 -0 -0 -0 0 0 0 0 0 0 0 0 0 0 0 -0 -0 0 nan
nan 0 0 0 0 0 0 0 0 0 0 0 0 0 0 0 0 -0 0 0 0 0 -0 -0 -0 -0 -0 0 0 0 -0 -0 -0 0 0 0 0 0 0 -0 0 0 nan
nan 0 0 0 0 0 0 0 0 0 0 1 1 0 0 0 0 -0 -0 0 0 -0 -0 -0 -0 -0 0 0 -0 -0 -0 -0 0 0 0 0 0 0 0 -0 0 0 nan
nan 0 -0 0 0 0 0 0 0 0 0 0 0 0 0 -0 -0 -0 -0 0 0 -1 -1 -0 -0 0 0 -0 -0 -0 -0 0 0 0 0 0 0 0 0 0 0 -0 nan
nan 0 -0 0 0 0 0 0 0 0 -0 0 0 0 0 -0 -0 -0 0 -0 -0 -1 -1 -0 0 -0 -0 -0 -0 -0 0 0 0 0 0 0 0 0 0 0 0 0 nan
nan 0 0 0 0 0 0 1 1 0 -0 -0 0 0 -0 -0 -0 -0 -0 -1 -1 -1 -0 -0 0 -0 0 0 0 0 0 0 0 0 0 0 0 0 0 0 0 0 nan
nan 0 0 0 0 0 0 0 1 1 0 -0 -0 -0 0 0 -1 -1 -0 -1 -1 -0 -0 -0 0 0 0 0 0 0 0 -0 0 0 0 0 0 0 0 0 0 1 nan
nan -0 -0 -0 0 0 0 0 0 0 0 0 -0 -0 0 -0 -0 -0 -1 -1 -0 -0 -0 0 0 0 0 0 0 0 0 0 0 0 0 1 0 0 0 0 1 0 nan
nan -0 -0 0 -0 -0 0 0 0 0 0 0 0 0 0 -0 -1 -1 -0 -0 -0 0 0 -0 -0 0 0 0 0 0 0 0 0 0 1 0 0 0 0 0 1 1 nan
nan -0 -0 -0 0 -0 -0 0 0 0 0 0 0 0 0 0 -0 -0 -0 0 -0 -0 0 0 -0 -0 0 0 0 0 -0 -0 1 1 0 0 0 0 0 1 1 0 nan
nan -0 -0 -0 -0 -0 -0 -0 -0 -0 -0 0 0 0 0 -0 -0 0 -0 -0 -0 0 -0 0 -0 -0 -0 0 0 0 0 0 0 1 1 0 0 0 1 0 0 1 nan
nan 0 0 -0 -0 -0 -0 -0 -0 -0 -0 -0 -0 -0 -0 -0 -0 -0 0 0 -0 -0 -0 -0 -0 -0 0 0 -0 0 1 1 0 1 1 0 1 1 0 0 0 0 nan
nan nan nan nan nan nan nan nan nan nan nan nan nan nan nan nan nan nan nan nan nan nan nan nan nan nan nan nan nan nan nan nan nan nan nan nan nan nan nan nan nan nan nan
Wind_Speed
18 12 9 12 16 18 18 18 18 18 19 19 17 17 17 16 16 16 17 19 23 22 21 22 24 24 24 20 22 21 20 22 21 21 21 20 19 17 13 9 11 12 11
21 22 21 16 17 17 17 16 16 16 17 17 18 19 19 18 19 18 17 15 14 17 20 22 24 27 22 20 22 21 23 21 19 19 20 18 17 14 11 9 12 13 10
22 23 24 23 20 18 16 14 15 16 16 17 19 19 20 19 19 19 18 17 16 16 18 19 20 23 20 20 24 20 18 16 16 16 17 16 13 13 10 9 10 8 7
16 16 17 17 15 14 13 12 13 13 14 16 17 17 17 17 19 19 20 20 19 19 19 20 20 22 21 22 20 17 15 15 15 14 13 12 12 11 10 9 10 8 7
15 15 15 14 12 11 10 10 10 11 12 14 15 16 17 17 16 17 19 20 20 20 20 21 21 21 20 19 16 15 14 13 13 12 11 10 10 11 11 10 11 10 9
14 13 12 11 10 10 9 9 9 10 12 14 15 16 17 17 17 16 18 18 18 19 18 18 20 19 18 17 14 13 12 13 13 12 11 11 11 11 11 11 11 11 10
13 12 11 10 10 10 10 11 11 11 12 13 15 17 18 18 17 18 18 18 18 17 17 17 15 13 13 12 13 14 14 15 14 13 12 12 11 11 10 11 10 10 12
11 11 11 11 11 12 12 12 13 14 14 14 15 17 18 17 17 17 16 17 17 16 15 14 13 13 12 13 12 13 13 12 13 12 12 11 10 10 10 10 10 9 8
13 12 12 11 12 12 13 14 14 15 16 17 16 14 16 15 15 13 12 13 14 14 13 13 13 13 13 13 12 12 12 12 12 11 10 11 10 10 10 9 9 8 8
13 13 13 13 13 14 15 15 15 16 17 17 15 12 13 14 12 10 11 13 14 14 15 13 13 12 12 12 12 13 11 11 10 10 9 9 9 9 8 8 7 8 7
12 14 15 14 15 15 16 16 17 17 17 16 14 12 11 13 12 11 12 12 12 13 13 13 14 11 11 11 12 12 11 10 10 9 9 9 9 9 7 7 7 7 7
14 15 15 15 15 16 16 17 18 17 16 15 15 14 12 13 12 13 13 13 13 13 13 13 12 10 11 11 11 11 10 9 10 10 10 9 8 8 7 7 8 9 9
14 14 15 15 16 17 17 16 16 16 16 15 15 15 14 14 14 14 14 14 14 15 14 13 11 11 10 10 10 10 11 11 11 10 9 8 8 7 8 9 9 10 11
11 12 14 15 17 17 16 16 16 16 16 16 17 17 17 16 15 15 14 15 15 15 14 13 12 11 11 11 11 11 11 12 11 10 10 9 8 9 9 10 11 12 11
11 13 14 15 17 16 16 16 16 17 16 16 17 17 18 17 13 14 13 13 12 12 12 12 12 12 12 11 12 12 13 13 12 11 11 9 10 10 11 12 12 13 12
13 14 15 14 16 16 16 17 17 18 18 18 16 17 17 16 14 14 13 13 13 13 13 12 13 13 13 13 13 13 13 13 12 12 12 12 12 12 12 13 13 13 13
14 14 16 16 15 16 16 18 19 17 18 18 17 17 19 17 16 15 14 14 15 16 17 15 15 15 14 14 14 14 13 13 14 14 13 13 14 14 14 14 14 14 15
14 15 16 16 16 16 16 17 18 18 19 19 17 18 20 20 19 17 16 17 19 21 21 18 17 16 15 15 15 14 14 15 16 15 15 15 15 15 16 15 14 16 15
13 14 15 16 17 17 17 17 17 17 19 19 17 17 18 19 21 20 20 23 23 22 21 19 17 17 17 16 15 16 16 17 17 18 17 17 17 17 17 16 15 16 17
14 14 15 15 16 17 17 16 17 17 17 19 19 18 16 20 24 25 26 26 25 24 23 22 20 19 18 18 18 19 19 19 20 20 19 19 19 19 18 17 18 17 17
14 14 14 16 16 16 16 16 15 16 17 18 19 19 18 21 23 25 27 27 27 27 26 23 22 21 20 21 21 22 22 22 22 22 21 21 21 21 19 18 20 19 19
13 13 14 15 16 17 17 17 17 17 17 18 19 19 20 22 26 28 30 30 29 29 27 26 26 24 24 23 23 24 24 24 23 23 23 22 23 22 21 21 22 20 20
13 13 14 14 16 17 18 18 18 19 19 19 19 20 20 23 25 27 30 33 32 31 30 29 29 29 27 27 26 26 27 26 24 23 24 25 24 24 22 21 21 22 22
14 14 15 16 17 18 19 20 21 22 22 23 22 22 22 23 24 26 28 29 33 33 34 33 33 32 31 30 29 29 28 27 25 26 26 26 26 25 23 21 23 23 23
15 15 15 16 18 19 20 21 22 22 23 23 23 24 24 24 25 25 26 28 31 32 34 36 36 35 34 33 32 31 30 28 28 28 27 26 28 27 24 25 24 24 25
16 16 16 16 17 17 18 20 21 21 22 23 24 24 24 25 25 25 26 26 27 30 32 34 36 36 36 37 36 34 31 29 31 30 27 30 30 29 30 26 23 26 26
Wind_Direction
213 215 242 276 249 249 245 246 248 254 260 268 269 266 266 265 266 267 270 264 253 250 249 249 257 257 248 252 256 262 265 270 260 250 252 264 272 273 279 255 260 256 255
211 229 233 265 263 253 248 253 259 263 267 271 271 272 271 270 271 271 270 261 254 251 247 246 250 249 259 248 256 265 273 266 254 247 251 256 261 265 260 252 253 257 260
217 223 226 222 221 234 245 252 259 264 267 271 271 272 274 275 271 268 265 258 253 245 245 242 250 251 244 252 272 272 261 251 249 247 251 252 242 247 250 254 253 257 264
204 206 207 214 223 234 240 246 251 259 268 272 275 274 271 268 265 262 259 256 252 245 245 252 256 255 257 260 262 257 249 242 240 239 239 231 231 242 241 242 250 260 261
201 205 211 218 224 233 243 252 263 273 280 281 281 278 276 272 266 262 257 255 253 249 248 248 250 251 252 252 251 242 233 227 229 226 227 221 224 231 238 244 251 260 262
203 211 213 217 225 234 244 256 270 279 284 284 284 285 280 275 268 261 257 253 249 247 248 247 246 251 250 246 236 229 226 221 226 229 232 230 233 236 238 242 247 255 263
210 214 218 226 235 244 252 261 271 279 282 288 292 290 283 275 267 259 258 257 253 251 245 243 242 236 230 224 223 217 221 226 226 234 232 236 237 240 243 244 246 250 257
219 223 227 234 243 252 261 269 278 281 283 284 291 296 290 273 264 262 254 248 246 245 238 230 223 221 214 215 216 218 228 227 228 231 234 242 243 243 243 242 240 239 243
227 233 240 249 258 263 265 272 278 280 280 281 280 292 300 286 263 256 246 238 238 232 227 219 215 211 211 213 218 232 219 225 226 227 224 230 235 235 233 234 229 225 229
238 244 247 255 264 270 276 281 284 285 285 288 285 289 298 284 259 243 226 220 220 222 221 220 221 213 218 224 221 229 222 220 221 217 219 223 222 223 222 216 222 231 246
247 250 253 259 267 272 278 283 284 285 285 283 279 278 282 279 245 229 226 217 215 219 219 221 229 219 225 228 228 226 222 215 215 215 213 211 209 215 216 219 228 239 253
254 253 256 262 267 275 279 282 283 281 280 277 274 271 267 266 254 228 224 225 224 225 228 228 229 233 229 229 228 221 224 213 215 215 213 211 213 219 221 235 247 256 259
254 254 259 265 273 276 278 278 275 274 276 271 267 266 260 257 250 237 229 231 237 238 237 237 237 236 232 232 227 219 222 217 217 218 221 224 228 230 236 253 264 270 271
254 258 265 273 279 281 279 276 272 274 275 272 268 263 257 253 243 237 236 238 241 244 240 238 237 235 231 226 223 220 218 218 221 226 231 234 239 249 260 269 274 273 271
259 265 273 281 286 283 277 272 275 276 275 273 269 262 253 256 241 243 242 244 242 240 238 234 233 233 232 228 225 225 223 225 228 235 243 245 247 254 261 270 276 280 282
263 267 277 284 286 286 280 275 276 277 277 276 265 252 249 251 233 239 241 243 243 242 243 240 238 238 236 234 232 233 231 234 237 243 248 253 257 262 267 276 282 285 287
264 268 276 283 289 293 291 285 278 276 277 274 267 255 244 244 234 235 239 243 247 252 249 247 246 244 241 240 240 240 242 244 242 244 248 253 258 264 268 277 284 290 293
266 267 273 278 281 287 294 294 286 275 272 272 269 262 248 239 233 237 241 244 244 246 252 251 250 250 248 246 247 249 248 245 248 252 255 257 259 262 266 273 281 288 292
268 267 269 273 276 281 289 294 290 278 271 270 268 260 250 237 237 242 244 248 252 254 259 259 255 253 252 251 250 251 252 253 255 253 254 256 258 261 267 271 276 282 286
271 272 274 273 275 278 281 289 292 286 275 270 268 267 247 235 238 242 244 250 257 260 259 260 259 257 255 253 253 253 253 254 256 258 257 258 259 261 265 269 274 277 280
278 274 274 276 276 278 280 283 289 288 283 276 274 270 263 251 251 250 254 256 260 263 264 264 263 261 257 255 254 254 255 256 257 259 260 258 258 260 264 268 273 274 279
287 284 281 279 281 282 282 284 285 286 287 285 282 276 268 262 256 255 256 257 258 261 263 264 263 261 259 258 258 257 257 257 258 259 260 260 258 258 260 268 272 273 278
294 290 286 283 281 282 283 285 285 286 289 289 287 283 275 268 267 265 260 262 262 262 263 263 264 263 260 259 258 258 258 260 262 262 261 259 257 255 256 268 270 271 275
298 293 291 290 289 286 285 286 287 286 285 285 284 284 281 278 274 271 270 266 263 261 262 262 262 262 261 261 260 258 259 258 257 256 256 255 254 251 255 269 272 270 274
308 303 300 296 292 288 287 287 287 287 286 285 284 284 284 282 279 277 275 272 270 267 262 261 261 260 260 259 259 259 258 256 254 252 247 254 254 250 258 272 266 267 272
324 319 313 306 300 296 293 292 291 290 288 288 287 285 283 281 279 278 276 274 272 270 269 266 263 262 260 255 252 254 254 253 251 246 247 253 249 251 259 264 260 264 269
Height
1503 1503 1508 1514 1515 1517 1516 1519 1520 1520 1522 1522 1523 1523 1523 1523 1523 1522 1523 1525 1526 1525 1528 1529 1530 1531 1533 1532 1534 1536 1536 1536 1535 1536 1537 1538 1538 1538 1537 1536 1540 1538 1539
1498 1500 1503 1509 1513 1513 1515 1515 1514 1516 1517 1518 1519 1519 1519 1519 1518 1518 1519 1521 1521 1521 1523 1524 1526 1528 1528 1528 1529 1530 1529 1530 1529 1530 1532 1532 1534 1535 1533 1533 1536 1535 1535
1494 1496 1499 1504 1506 1508 1510 1509 1510 1511 1512 1513 1514 1514 1514 1514 1514 1514 1515 1516 1517 1518 1518 1519 1520 1522 1522 1523 1524 1524 1524 1524 1524 1524 1526 1527 1528 1531 1530 1530 1533 1532 1532
1491 1494 1498 1502 1503 1505 1506 1506 1508 1507 1507 1509 1510 1510 1509 1509 1511 1511 1509 1511 1512 1513 1513 1516 1515 1517 1517 1518 1518 1519 1520 1520 1519 1520 1522 1523 1524 1527 1528 1528 1530 1529 1530
1491 1493 1496 1498 1499 1501 1502 1504 1505 1505 1505 1506 1506 1506 1505 1505 1506 1506 1505 1504 1506 1507 1508 1509 1511 1512 1512 1513 1513 1513 1515 1515 1516 1516 1519 1519 1521 1523 1524 1525 1525 1525 1527
1490 1492 1494 1496 1497 1499 1500 1502 1502 1502 1502 1503 1503 1502 1502 1500 1501 1500 1501 1500 1500 1501 1502 1504 1506 1506 1507 1507 1509 1510 1513 1513 1512 1512 1515 1515 1517 1519 1520 1522 1523 1523 1524
1488 1490 1492 1494 1496 1497 1498 1498 1499 1499 1499 1500 1499 1499 1496 1496 1496 1495 1495 1496 1497 1498 1498 1499 1501 1500 1503 1504 1506 1507 1509 1511 1511 1511 1511 1512 1514 1515 1517 1519 1519 1520 1520
1487 1489 1490 1491 1493 1494 1494 1495 1495 1495 1495 1495 1494 1493 1492 1491 1490 1490 1490 1492 1493 1495 1496 1496 1496 1497 1498 1501 1504 1505 1508 1507 1507 1508 1509 1510 1512 1513 1514 1515 1516 1517 1517
1485 1486 1488 1489 1489 1490 1491 1491 1492 1492 1491 1491 1490 1489 1488 1486 1485 1486 1487 1487 1490 1492 1493 1493 1493 1495 1496 1498 1500 1506 1503 1505 1506 1505 1507 1507 1509 1510 1511 1512 1513 1514 1514
1482 1484 1485 1486 1486 1486 1487 1487 1487 1487 1487 1486 1485 1484 1483 1483 1483 1483 1484 1485 1487 1490 1490 1490 1493 1493 1494 1496 1498 1501 1500 1502 1504 1504 1504 1505 1507 1508 1508 1510 1511 1512 1513
1479 1481 1482 1483 1483 1483 1483 1483 1483 1483 1482 1481 1481 1480 1480 1481 1481 1482 1483 1483 1485 1487 1488 1489 1491 1490 1491 1493 1495 1497 1497 1500 1501 1502 1502 1503 1504 1506 1507 1508 1510 1510 1510
1476 1478 1479 1479 1479 1479 1479 1479 1479 1478 1478 1478 1478 1478 1477 1477 1479 1480 1481 1482 1482 1485 1486 1488 1487 1487 1490 1491 1492 1493 1495 1497 1499 1500 1501 1501 1502 1504 1505 1506 1507 1508 1508
1472 1474 1475 1475 1475 1475 1475 1475 1475 1475 1474 1474 1475 1475 1475 1475 1476 1477 1478 1480 1481 1483 1484 1484 1484 1486 1487 1488 1489 1490 1493 1494 1496 1498 1498 1499 1500 1501 1503 1503 1504 1504 1504
1469 1471 1471 1471 1471 1470 1470 1470 1471 1471 1471 1471 1471 1471 1471 1472 1473 1475 1476 1478 1479 1480 1480 1480 1481 1483 1484 1485 1486 1488 1491 1492 1494 1495 1496 1497 1497 1499 1500 1500 1501 1500 1500
1466 1467 1467 1467 1466 1466 1466 1467 1467 1467 1468 1467 1467 1467 1468 1468 1470 1473 1474 1475 1476 1477 1477 1477 1478 1479 1481 1482 1484 1486 1488 1489 1491 1492 1493 1494 1495 1496 1497 1497 1497 1496 1496
1464 1463 1463 1463 1462 1462 1462 1462 1462 1463 1462 1462 1462 1463 1464 1465 1467 1469 1470 1471 1473 1473 1473 1473 1475 1476 1478 1480 1481 1483 1484 1486 1487 1488 1490 1491 1492 1492 1493 1492 1492 1491 1491
1460 1460 1459 1459 1458 1458 1457 1457 1457 1458 1457 1457 1457 1458 1459 1461 1463 1465 1466 1468 1468 1468 1467 1470 1471 1473 1475 1476 1478 1479 1481 1482 1483 1484 1486 1487 1488 1488 1488 1488 1488 1487 1486
1455 1456 1455 1455 1454 1453 1453 1452 1452 1452 1452 1452 1453 1453 1454 1456 1458 1461 1462 1463 1463 1462 1464 1466 1467 1469 1471 1472 1474 1475 1477 1478 1479 1480 1481 1482 1483 1484 1484 1484 1484 1483 1483
1451 1451 1450 1450 1449 1449 1448 1448 1447 1447 1447 1447 1447 1448 1449 1451 1454 1456 1457 1456 1457 1458 1460 1461 1463 1464 1466 1468 1469 1471 1472 1473 1474 1475 1476 1477 1478 1478 1478 1479 1479 1478 1478
1446 1446 1446 1445 1445 1444 1444 1443 1442 1442 1442 1442 1442 1443 1445 1446 1446 1448 1449 1450 1451 1453 1454 1456 1458 1459 1461 1462 1464 1465 1466 1467 1468 1469 1471 1472 1472 1473 1473 1473 1473 1473 1473
1441 1441 1441 1440 1440 1440 1439 1439 1438 1437 1437 1437 1437 1438 1440 1441 1441 1442 1443 1444 1445 1446 1448 1450 1452 1453 1455 1456 1457 1458 1459 1461 1462 1463 1464 1465 1466 1466 1467 1467 1467 1467 1467
1437 1436 1436 1436 1435 1435 1434 1434 1434 1433 1432 1432 1432 1432 1433 1433 1434 1435 1435 1436 1438 1440 1442 1443 1444 1446 1447 1449 1450 1451 1452 1453 1455 1456 1457 1458 1458 1459 1460 1460 1460 1460 1460
1433 1432 1432 1431 1431 1430 1429 1429 1428 1428 1427 1427 1426 1426 1426 1426 1426 1427 1427 1428 1430 1432 1434 1435 1436 1437 1439 1440 1442 1443 1443 1445 1447 1448 1449 1450 1450 1452 1453 1453 1453 1453 1453
1430 1428 1427 1427 1426 1425 1424 1424 1423 1422 1421 1421 1420 1420 1419 1419 1419 1419 1419 1419 1420 1422 1423 1425 1426 1427 1429 1430 1432 1433 1434 1436 1438 1439 1441 1441 1442 1444 1445 1445 1445 1446 1446
1426 1424 1423 1422 1420 1419 1418 1417 1416 1415 1414 1414 1413 1412 1412 1411 1410 1410 1410 1410 1410 1411 1412 1413 1415 1416 1418 1419 1421 1423 1425 1427 1428 1430 1431 1432 1434 1435 1436 1437 1438 1438 1438
1423 1421 1419 1417 1416 1414 1413 1411 1410 1408 1407 1406 1405 1405 1404 1403 1402 1402 1401 1401 1401 1401 1401 1401 1402 1404 1405 1407 1409 1411 1414 1416 1418 1419 1421 1423 1424 1426 1428 1428 1429 1430 1430